Location: Newark
(48.6461°N, 4.3644°W)
Time: 08:45:18
(UTC+00:00)

Transit 2A - All Passes

Search period start: 19 January 2020 00:00
Search period end: 29 January 2020 00:00
Orbit: 601 x 957 km, 66.7° (Epoch: 18 January)

Date Brightness Start Highest point End Pass type
(mag) Time Alt. Az. Time Alt. Az. Time Alt. Az.
19 Jan - 04:48:54 10° NNW 04:52:45 26° NE 04:56:51 10° E visible
19 Jan - 06:31:36 10° NW 06:36:14 63° WSW 06:41:17 10° SSE visible
19 Jan - 21:15:52 10° S 21:20:01 41° ESE 21:24:07 10° NE night (unlit)
19 Jan - 22:59:23 10° WSW 23:03:15 30° NW 23:07:07 10° NNE night (unlit)
20 Jan - 04:15:00 10° NNW 04:18:25 20° NE 04:22:01 10° E visible
20 Jan - 05:57:26 10° NW 06:02:07 88° SW 06:07:15 10° SSE visible
20 Jan - 07:42:14 10° WNW 07:44:41 14° WSW 07:47:15 10° SW daylight
20 Jan - 20:42:15 10° S 20:46:01 28° ESE 20:49:44 10° NE night (unlit)
20 Jan - 22:24:51 10° WSW 22:28:59 40° NW 22:33:08 10° NNE night (unlit)
21 Jan - 00:11:55 10° NW 00:13:22 11° NNW 00:14:51 10° N night (unlit)
21 Jan - 03:41:07 10° N 03:44:00 16° NNE 03:47:02 10° ENE visible
21 Jan - 05:23:20 10° NNW 05:27:59 66° NE 05:33:02 10° SE visible
21 Jan - 07:07:16 10° WNW 07:10:46 20° WSW 07:14:28 10° SSW visible
21 Jan - 20:08:56 10° SSE 20:12:03 19° ESE 20:15:09 10° ENE night (unlit)
21 Jan - 21:50:27 10° SW 21:54:47 57° NW 21:59:05 10° NNE night (unlit)
21 Jan - 23:36:37 10° WNW 23:38:53 14° NNW 23:41:12 10° N night (unlit)
22 Jan - 03:07:19 10° N 03:09:33 13° NNE 03:11:53 10° NE visible
22 Jan - 04:49:17 10° NNW 04:53:47 48° NE 04:58:41 10° ESE visible
22 Jan - 06:32:41 10° NW 06:36:47 29° WSW 06:41:11 10° S visible
22 Jan - 19:36:13 10° SE 19:38:09 13° ESE 19:40:04 10° E night (unlit)
22 Jan - 21:16:13 10° SW 21:20:37 83° NW 21:24:59 10° NE night (unlit)
22 Jan - 23:01:33 10° WNW 23:04:27 17° NNW 23:07:23 10° N night (unlit)
23 Jan - 02:33:41 10° N 02:35:04 11° NNE 02:36:28 10° NE night (unlit)
23 Jan - 04:15:16 10° NNW 04:19:33 36° NE 04:24:10 10° ESE visible
23 Jan - 05:58:18 10° NW 06:02:46 41° WSW 06:07:36 10° S visible
23 Jan - 20:42:09 10° SSW 20:46:30 68° ESE 20:50:50 10° NE night (unlit)
23 Jan - 22:26:41 10° W 22:30:04 22° NW 22:33:30 10° NNE night (unlit)
24 Jan - 03:41:18 10° NNW 03:45:16 27° NE 03:49:31 10° E visible
24 Jan - 05:24:03 10° NW 05:28:42 59° WSW 05:33:47 10° SSE visible
24 Jan - 20:08:15 10° S 20:12:26 45° ESE 20:16:36 10° NE visible
24 Jan - 21:51:58 10° WSW 21:55:44 28° NW 21:59:33 10° NNE night (unlit)
25 Jan - 03:07:21 10° NNW 03:10:56 21° NE 03:14:42 10° E visible
25 Jan - 04:49:52 10° NW 04:54:35 83° WSW 04:59:47 10° SSE visible
25 Jan - 06:34:53 10° W 06:37:08 13° WSW 06:39:27 10° SW visible
25 Jan - 19:34:35 10° S 19:38:26 30° ESE 19:42:15 10° NE visible
25 Jan - 21:17:23 10° WSW 21:21:27 38° NW 21:25:34 10° NNE night (unlit)
25 Jan - 23:04:38 10° NW 23:05:55 11° NNW 23:07:12 10° N night (unlit)
26 Jan - 02:33:27 10° N 02:36:33 17° NNE 02:39:46 10° ENE night (unlit)
26 Jan - 04:15:45 10° NNW 04:20:27 71° NE 04:25:37 10° SE visible
26 Jan - 05:59:48 10° WNW 06:03:12 19° WSW 06:06:49 10° SSW visible
26 Jan - 19:01:13 10° SSE 19:04:28 21° ESE 19:07:43 10° ENE visible
26 Jan - 20:42:58 10° SW 20:47:14 53° NW 20:51:32 10° NNE visible
26 Jan - 22:29:16 10° NW 22:31:25 13° NNW 22:33:36 10° N night (unlit)
27 Jan - 01:59:38 10° N 02:02:06 14° NNE 02:04:40 10° ENE night (unlit)
27 Jan - 03:41:42 10° NNW 03:46:16 51° NE 03:51:17 10° SE visible
27 Jan - 05:25:11 10° WNW 05:29:14 27° WSW 05:33:35 10° S visible
27 Jan - 18:28:19 10° SE 18:30:33 14° ESE 18:32:47 10° ENE visible
27 Jan - 20:08:42 10° SW 20:13:04 77° NW 20:17:27 10° NNE visible
27 Jan - 21:54:11 10° WNW 21:56:58 16° NNW 21:59:48 10° N night (unlit)
28 Jan - 01:25:55 10° N 01:27:37 12° NNE 01:29:21 10° NE night (unlit)
28 Jan - 03:07:40 10° NNW 03:12:03 38° NE 03:16:48 10° ESE night (unlit)
28 Jan - 04:50:46 10° NW 04:55:13 38° WSW 05:00:03 10° S visible
28 Jan - 19:34:35 10° SSW 19:38:57 73° ESE 19:43:18 10° NE visible
28 Jan - 21:19:17 10° W 21:22:34 21° NW 21:25:55 10° NNE visible
